Year,Month,Day,Hour,Minute,Value (Times are PST for barometer in hPa)
2012,11,30,00,00,990.93
2012,11,30,00,01,990.93
2012,11,30,00,02,990.86
2012,11,30,00,03,990.82
2012,11,30,00,04,990.79
2012,11,30,00,05,990.79
2012,11,30,00,06,990.76
2012,11,30,00,07,990.76
2012,11,30,00,08,990.72
2012,11,30,00,09,990.65
2012,11,30,00,10,990.69
2012,11,30,00,11,990.69
2012,11,30,00,12,990.72
2012,11,30,00,13,990.69
2012,11,30,00,14,990.72
2012,11,30,00,15,990.72
2012,11,30,00,16,990.69
2012,11,30,00,17,990.69
2012,11,30,00,18,990.65
2012,11,30,00,19,990.62
2012,11,30,00,20,990.54
2012,11,30,00,21,990.42
2012,11,30,00,22,990.35
2012,11,30,00,23,990.38
2012,11,30,00,24,990.45
2012,11,30,00,25,990.49
2012,11,30,00,26,990.45
2012,11,30,00,27,990.45
2012,11,30,00,28,990.45
2012,11,30,00,29,990.38
2012,11,30,00,30,990.45
2012,11,30,00,31,990.49
2012,11,30,00,32,990.52
2012,11,30,00,33,990.49
2012,11,30,00,34,990.49
2012,11,30,00,35,990.42
2012,11,30,00,36,990.49
2012,11,30,00,37,990.49
2012,11,30,00,38,990.42
2012,11,30,00,39,990.38
2012,11,30,00,40,990.45
2012,11,30,00,41,990.45
2012,11,30,00,42,990.42
2012,11,30,00,43,990.38
2012,11,30,00,44,990.38
2012,11,30,00,45,990.35
2012,11,30,00,46,990.32
2012,11,30,00,47,990.35
2012,11,30,00,48,990.35
2012,11,30,00,49,990.32
2012,11,30,00,50,990.32
2012,11,30,00,51,990.38
2012,11,30,00,52,990.38
2012,11,30,00,53,990.42
2012,11,30,00,54,990.35
2012,11,30,00,55,990.28
2012,11,30,00,56,990.21
2012,11,30,00,57,990.25
2012,11,30,00,58,990.25
2012,11,30,00,59,990.18
2012,11,30,01,00,990.21
2012,11,30,01,01,990.21
2012,11,30,01,02,990.21
2012,11,30,01,03,990.21
2012,11,30,01,04,990.21
2012,11,30,01,05,990.15
2012,11,30,01,06,990.11
2012,11,30,01,07,990.04
2012,11,30,01,08,990.04
2012,11,30,01,09,990.01
2012,11,30,01,10,990.01
2012,11,30,01,11,990.04
2012,11,30,01,12,990.01
2012,11,30,01,13,989.98
2012,11,30,01,14,989.98
2012,11,30,01,15,989.98
2012,11,30,01,16,989.98
2012,11,30,01,17,990.04
2012,11,30,01,18,989.98
2012,11,30,01,19,989.98
2012,11,30,01,20,989.94
2012,11,30,01,21,989.98
2012,11,30,01,22,989.94
2012,11,30,01,23,989.91
2012,11,30,01,24,989.94
2012,11,30,01,25,990.01
2012,11,30,01,26,990.04
2012,11,30,01,27,990.01
2012,11,30,01,28,990.01
2012,11,30,01,29,989.94
2012,11,30,01,30,989.94
2012,11,30,01,31,989.94
2012,11,30,01,32,989.91
2012,11,30,01,33,989.88
2012,11,30,01,34,989.84
2012,11,30,01,35,989.81
2012,11,30,01,36,989.77
2012,11,30,01,37,989.74
2012,11,30,01,38,989.71
2012,11,30,01,39,989.67
2012,11,30,01,40,989.67
2012,11,30,01,41,989.64
2012,11,30,01,42,989.64
2012,11,30,01,43,989.64
2012,11,30,01,44,989.64
2012,11,30,01,45,989.67
2012,11,30,01,46,989.67
2012,11,30,01,47,989.67
2012,11,30,01,48,989.67
2012,11,30,01,49,989.64
2012,11,30,01,50,989.57
2012,11,30,01,51,989.54
2012,11,30,01,52,989.47
2012,11,30,01,53,989.50
2012,11,30,01,54,989.50
2012,11,30,01,55,989.54
2012,11,30,01,56,989.47
2012,11,30,01,57,989.47
2012,11,30,01,58,989.47
2012,11,30,01,59,989.54
2012,11,30,02,00,989.54
2012,11,30,02,01,989.50
2012,11,30,02,02,989.50
2012,11,30,02,03,989.47
2012,11,30,02,04,989.50
2012,11,30,02,05,989.50
2012,11,30,02,06,989.50
2012,11,30,02,07,989.50
2012,11,30,02,08,989.54
2012,11,30,02,09,989.57
2012,11,30,02,10,989.60
2012,11,30,02,11,989.57
2012,11,30,02,12,989.54
2012,11,30,02,13,989.50
2012,11,30,02,14,989.57
2012,11,30,02,15,989.60
2012,11,30,02,16,989.57
2012,11,30,02,17,989.60
2012,11,30,02,18,989.67
2012,11,30,02,19,989.71
2012,11,30,02,20,989.71
2012,11,30,02,21,989.67
2012,11,30,02,22,989.64
2012,11,30,02,23,989.60
2012,11,30,02,24,989.64
2012,11,30,02,25,989.64
2012,11,30,02,26,989.53
2012,11,30,02,27,989.43
2012,11,30,02,28,989.33
2012,11,30,02,29,989.33
2012,11,30,02,30,989.37
2012,11,30,02,31,989.40
2012,11,30,02,32,989.47
2012,11,30,02,33,989.40
2012,11,30,02,34,989.37
2012,11,30,02,35,989.44
2012,11,30,02,36,989.37
2012,11,30,02,37,989.37
2012,11,30,02,38,989.44
2012,11,30,02,39,989.44
2012,11,30,02,40,989.40
2012,11,30,02,41,989.40
2012,11,30,02,42,989.30
2012,11,30,02,43,989.23
2012,11,30,02,44,989.16
2012,11,30,02,45,989.16
2012,11,30,02,46,989.23
2012,11,30,02,47,989.20
2012,11,30,02,48,989.20
2012,11,30,02,49,989.23
2012,11,30,02,50,989.30
2012,11,30,02,51,989.33
2012,11,30,02,52,989.23
2012,11,30,02,53,989.23
2012,11,30,02,54,989.16
2012,11,30,02,55,989.10
2012,11,30,02,56,989.10
2012,11,30,02,57,989.10
2012,11,30,02,58,989.06
2012,11,30,02,59,989.06
2012,11,30,03,00,989.00
2012,11,30,03,01,988.86
2012,11,30,03,02,988.86
2012,11,30,03,03,988.86
2012,11,30,03,04,988.89
2012,11,30,03,05,988.89
2012,11,30,03,06,988.89
2012,11,30,03,07,988.89
2012,11,30,03,08,988.89
2012,11,30,03,09,988.96
2012,11,30,03,10,989.00
2012,11,30,03,11,989.00
2012,11,30,03,12,988.89
2012,11,30,03,13,988.89
2012,11,30,03,14,988.76
2012,11,30,03,15,988.66
2012,11,30,03,16,988.59
2012,11,30,03,17,988.55
2012,11,30,03,18,988.55
2012,11,30,03,19,988.55
2012,11,30,03,20,988.59
2012,11,30,03,21,988.59
2012,11,30,03,22,988.52
2012,11,30,03,23,988.39
2012,11,30,03,24,988.35
2012,11,30,03,25,988.28
2012,11,30,03,26,988.28
2012,11,30,03,27,988.25
2012,11,30,03,28,988.25
2012,11,30,03,29,988.28
2012,11,30,03,30,988.25
2012,11,30,03,31,988.22
2012,11,30,03,32,988.18
2012,11,30,03,33,988.22
2012,11,30,03,34,988.15
2012,11,30,03,35,988.15
2012,11,30,03,36,988.18
2012,11,30,03,37,988.11
2012,11,30,03,38,988.15
2012,11,30,03,39,988.11
2012,11,30,03,40,988.08
2012,11,30,03,41,988.05
2012,11,30,03,42,988.05
2012,11,30,03,43,988.01
2012,11,30,03,44,987.98
2012,11,30,03,45,987.98
2012,11,30,03,46,987.91
2012,11,30,03,47,987.88
2012,11,30,03,48,987.84
2012,11,30,03,49,987.78
2012,11,30,03,50,987.74
2012,11,30,03,51,987.74
2012,11,30,03,52,987.74
2012,11,30,03,53,987.78
2012,11,30,03,54,987.78
2012,11,30,03,55,987.78
2012,11,30,03,56,987.74
2012,11,30,03,57,987.71
2012,11,30,03,58,987.74
2012,11,30,03,59,987.78
2012,11,30,04,00,987.74
2012,11,30,04,01,987.74
2012,11,30,04,02,987.78
2012,11,30,04,03,987.78
2012,11,30,04,04,987.71
2012,11,30,04,05,987.71
2012,11,30,04,06,987.61
2012,11,30,04,07,987.60
2012,11,30,04,08,987.51
2012,11,30,04,09,987.40
2012,11,30,04,10,987.40
2012,11,30,04,11,987.44
2012,11,30,04,12,987.44
2012,11,30,04,13,987.40
2012,11,30,04,14,987.34
2012,11,30,04,15,987.37
2012,11,30,04,16,987.40
2012,11,30,04,17,987.40
2012,11,30,04,18,987.34
2012,11,30,04,19,987.27
2012,11,30,04,20,987.23
2012,11,30,04,21,987.23
2012,11,30,04,22,987.27
2012,11,30,04,23,987.23
2012,11,30,04,24,987.20
2012,11,30,04,25,987.20
2012,11,30,04,26,987.23
2012,11,30,04,27,987.17
2012,11,30,04,28,987.20
2012,11,30,04,29,987.17
2012,11,30,04,30,987.13
2012,11,30,04,31,987.13
2012,11,30,04,32,987.06
2012,11,30,04,33,987.06
2012,11,30,04,34,987.00
2012,11,30,04,35,987.03
2012,11,30,04,36,987.06
2012,11,30,04,37,987.13
2012,11,30,04,38,987.13
2012,11,30,04,39,987.10
2012,11,30,04,40,987.06
2012,11,30,04,41,987.03
2012,11,30,04,42,987.03
2012,11,30,04,43,987.06
2012,11,30,04,44,987.06
2012,11,30,04,45,987.10
2012,11,30,04,46,987.13
2012,11,30,04,47,987.13
2012,11,30,04,48,987.17
2012,11,30,04,49,987.13
2012,11,30,04,50,987.10
2012,11,30,04,51,987.10
2012,11,30,04,52,987.10
2012,11,30,04,53,987.03
2012,11,30,04,54,987.03
2012,11,30,04,55,987.03
2012,11,30,04,56,987.06
2012,11,30,04,57,987.06
2012,11,30,04,58,987.13
2012,11,30,04,59,987.10
2012,11,30,05,00,987.10
2012,11,30,05,01,987.06
2012,11,30,05,02,987.06
2012,11,30,05,03,987.06
2012,11,30,05,04,987.06
2012,11,30,05,05,987.06
2012,11,30,05,06,987.03
2012,11,30,05,07,987.06
2012,11,30,05,08,987.10
2012,11,30,05,09,987.10
2012,11,30,05,10,987.13
2012,11,30,05,11,987.06
2012,11,30,05,12,987.03
2012,11,30,05,13,987.00
2012,11,30,05,14,987.00
2012,11,30,05,15,986.96
2012,11,30,05,16,986.90
2012,11,30,05,17,986.90
2012,11,30,05,18,986.86
2012,11,30,05,19,986.86
2012,11,30,05,20,986.86
2012,11,30,05,21,986.83
2012,11,30,05,22,986.79
2012,11,30,05,23,986.69
2012,11,30,05,24,986.62
2012,11,30,05,25,986.56
2012,11,30,05,26,986.56
2012,11,30,05,27,986.52
2012,11,30,05,28,986.49
2012,11,30,05,29,986.42
2012,11,30,05,30,986.42
2012,11,30,05,31,986.39
2012,11,30,05,32,986.42
2012,11,30,05,33,986.42
2012,11,30,05,34,986.42
2012,11,30,05,35,986.39
2012,11,30,05,36,986.39
2012,11,30,05,37,986.35
2012,11,30,05,38,986.32
2012,11,30,05,39,986.25
2012,11,30,05,40,986.18
2012,11,30,05,41,986.15
2012,11,30,05,42,986.15
2012,11,30,05,43,986.12
2012,11,30,05,44,986.15
2012,11,30,05,45,986.22
2012,11,30,05,46,986.22
2012,11,30,05,47,986.25
2012,11,30,05,48,986.18
2012,11,30,05,49,986.15
2012,11,30,05,50,986.22
2012,11,30,05,51,986.32
2012,11,30,05,52,986.32
2012,11,30,05,53,986.32
2012,11,30,05,54,986.35
2012,11,30,05,55,986.32
2012,11,30,05,56,986.35
2012,11,30,05,57,986.32
2012,11,30,05,58,986.39
2012,11,30,05,59,986.42
2012,11,30,06,00,986.42
2012,11,30,06,01,986.42
2012,11,30,06,02,986.39
2012,11,30,06,03,986.39
2012,11,30,06,04,986.42
2012,11,30,06,05,986.35
2012,11,30,06,06,986.35
2012,11,30,06,07,986.35
2012,11,30,06,08,986.39
2012,11,30,06,09,986.39
2012,11,30,06,10,986.39
2012,11,30,06,11,986.32
2012,11,30,06,12,986.29
2012,11,30,06,13,986.29
2012,11,30,06,14,986.29
2012,11,30,06,15,986.29
2012,11,30,06,16,986.35
2012,11,30,06,17,986.32
2012,11,30,06,18,986.35
2012,11,30,06,19,986.35
2012,11,30,06,20,986.32
2012,11,30,06,21,986.32
2012,11,30,06,22,986.29
2012,11,30,06,23,986.29
2012,11,30,06,24,986.35
2012,11,30,06,25,986.32
2012,11,30,06,26,986.32
2012,11,30,06,27,986.35
2012,11,30,06,28,986.29
2012,11,30,06,29,986.32
2012,11,30,06,30,986.35
2012,11,30,06,31,986.32
2012,11,30,06,32,986.29
2012,11,30,06,33,986.32
2012,11,30,06,34,986.32
2012,11,30,06,35,986.32
2012,11,30,06,36,986.32
2012,11,30,06,37,986.24
2012,11,30,06,38,986.12
2012,11,30,06,39,986.05
2012,11,30,06,40,986.05
2012,11,30,06,41,985.98
2012,11,30,06,42,986.02
2012,11,30,06,43,986.02
2012,11,30,06,44,986.02
2012,11,30,06,45,985.98
2012,11,30,06,46,985.88
2012,11,30,06,47,985.88
2012,11,30,06,48,985.95
2012,11,30,06,49,986.02
2012,11,30,06,50,986.02
2012,11,30,06,51,985.88
2012,11,30,06,52,985.85
2012,11,30,06,53,985.85
2012,11,30,06,54,985.85
2012,11,30,06,55,985.81
2012,11,30,06,56,985.81
2012,11,30,06,57,985.85
2012,11,30,06,58,985.84
2012,11,30,06,59,985.74
2012,11,30,07,00,985.71
2012,11,30,07,01,985.71
2012,11,30,07,02,985.74
2012,11,30,07,03,985.78
2012,11,30,07,04,985.78
2012,11,30,07,05,985.78
2012,11,30,07,06,985.78
2012,11,30,07,07,985.74
2012,11,30,07,08,985.68
2012,11,30,07,09,985.68
2012,11,30,07,10,985.57
2012,11,30,07,11,985.61
2012,11,30,07,12,985.61
2012,11,30,07,13,985.57
2012,11,30,07,14,985.64
2012,11,30,07,15,985.61
2012,11,30,07,16,985.64
2012,11,30,07,17,985.61
2012,11,30,07,18,985.68
2012,11,30,07,19,985.71
2012,11,30,07,20,985.74
2012,11,30,07,21,985.81
2012,11,30,07,22,985.88
2012,11,30,07,23,985.91
2012,11,30,07,24,985.95
2012,11,30,07,25,986.03
2012,11,30,07,26,986.12
2012,11,30,07,27,986.12
2012,11,30,07,28,986.08
2012,11,30,07,29,986.08
2012,11,30,07,30,986.15
2012,11,30,07,31,986.22
2012,11,30,07,32,986.22
2012,11,30,07,33,986.18
2012,11,30,07,34,986.22
2012,11,30,07,35,986.18
2012,11,30,07,36,986.18
2012,11,30,07,37,986.15
2012,11,30,07,38,986.22
2012,11,30,07,39,986.29
2012,11,30,07,40,986.32
2012,11,30,07,41,986.29
2012,11,30,07,42,986.22
2012,11,30,07,43,986.15
2012,11,30,07,44,986.12
2012,11,30,07,45,986.12
2012,11,30,07,46,986.22
2012,11,30,07,47,986.22
2012,11,30,07,48,986.18
2012,11,30,07,49,986.12
2012,11,30,07,50,986.05
2012,11,30,07,51,986.15
2012,11,30,07,52,986.18
2012,11,30,07,53,986.22
2012,11,30,07,54,986.25
2012,11,30,07,55,986.29
2012,11,30,07,56,986.29
2012,11,30,07,57,986.29
2012,11,30,07,58,986.29
2012,11,30,07,59,986.25
2012,11,30,08,00,986.22
2012,11,30,08,01,986.15
2012,11,30,08,02,986.18
2012,11,30,08,03,986.25
2012,11,30,08,04,986.25
2012,11,30,08,05,986.22
2012,11,30,08,06,986.18
2012,11,30,08,07,986.18
2012,11,30,08,08,986.12
2012,11,30,08,09,986.15
2012,11,30,08,10,986.18
2012,11,30,08,11,986.18
2012,11,30,08,12,986.12
2012,11,30,08,13,986.18
2012,11,30,08,14,986.18
2012,11,30,08,15,986.25
2012,11,30,08,16,986.29
2012,11,30,08,17,986.32
2012,11,30,08,18,986.32
2012,11,30,08,19,986.32
2012,11,30,08,20,986.32
2012,11,30,08,21,986.35
2012,11,30,08,22,986.32
2012,11,30,08,23,986.35
2012,11,30,08,24,986.32
2012,11,30,08,25,986.25
2012,11,30,08,26,986.18
2012,11,30,08,27,986.15
2012,11,30,08,28,986.22
2012,11,30,08,29,986.22
2012,11,30,08,30,986.18
2012,11,30,08,31,986.12
2012,11,30,08,32,986.08
2012,11,30,08,33,986.12
2012,11,30,08,34,986.15
2012,11,30,08,35,986.18
2012,11,30,08,36,986.22
2012,11,30,08,37,986.22
2012,11,30,08,38,986.29
2012,11,30,08,39,986.22
2012,11,30,08,40,986.18
2012,11,30,08,41,986.12
2012,11,30,08,42,986.08
2012,11,30,08,43,986.02
2012,11,30,08,44,985.98
2012,11,30,08,45,986.05
2012,11,30,08,46,986.08
2012,11,30,08,47,986.08
2012,11,30,08,48,986.05
2012,11,30,08,49,986.05
2012,11,30,08,50,986.05
2012,11,30,08,51,985.98
2012,11,30,08,52,985.91
2012,11,30,08,53,985.98
2012,11,30,08,54,985.98
2012,11,30,08,55,986.02
2012,11,30,08,56,986.05
2012,11,30,08,57,986.05
2012,11,30,08,58,986.12
2012,11,30,08,59,986.08
2012,11,30,09,00,986.05
2012,11,30,09,01,986.05
2012,11,30,09,02,986.08
2012,11,30,09,03,986.08
2012,11,30,09,04,986.18
2012,11,30,09,05,986.18
2012,11,30,09,06,986.22
2012,11,30,09,07,986.25
2012,11,30,09,08,986.32
2012,11,30,09,09,986.35
2012,11,30,09,10,986.35
2012,11,30,09,11,986.29
2012,11,30,09,12,986.32
2012,11,30,09,13,986.39
2012,11,30,09,14,986.46
2012,11,30,09,15,986.39
2012,11,30,09,16,986.29
2012,11,30,09,17,986.22
2012,11,30,09,18,986.29
2012,11,30,09,19,986.29
2012,11,30,09,20,986.22
2012,11,30,09,21,986.25
2012,11,30,09,22,986.29
2012,11,30,09,23,986.29
2012,11,30,09,24,986.32
2012,11,30,09,25,986.25
2012,11,30,09,26,986.22
2012,11,30,09,27,986.22
2012,11,30,09,28,986.15
2012,11,30,09,29,986.15
2012,11,30,09,30,986.15
2012,11,30,09,31,986.12
2012,11,30,09,32,986.05
2012,11,30,09,33,986.05
2012,11,30,09,34,986.05
2012,11,30,09,35,986.08
2012,11,30,09,36,985.98
2012,11,30,09,37,985.98
2012,11,30,09,38,985.98
2012,11,30,09,39,985.98
2012,11,30,09,40,985.96
2012,11,30,09,41,986.05
2012,11,30,09,42,986.05
2012,11,30,09,43,986.08
2012,11,30,09,44,986.05
2012,11,30,09,45,985.98
2012,11,30,09,46,986.02
2012,11,30,09,47,986.05
2012,11,30,09,48,986.12
2012,11,30,09,49,986.08
2012,11,30,09,50,986.08
2012,11,30,09,51,986.08
2012,11,30,09,52,986.08
2012,11,30,09,53,986.12
2012,11,30,09,54,986.12
2012,11,30,09,55,985.95
2012,11,30,09,56,985.91
2012,11,30,09,57,985.98
2012,11,30,09,58,985.95
2012,11,30,09,59,986.05
2012,11,30,10,00,986.08
2012,11,30,10,01,986.19
2012,11,30,10,02,986.35
2012,11,30,10,03,986.42
2012,11,30,10,04,986.42
2012,11,30,10,05,986.46
2012,11,30,10,06,986.35
2012,11,30,10,07,986.22
2012,11,30,10,08,986.15
2012,11,30,10,09,986.15
2012,11,30,10,10,986.12
2012,11,30,10,11,986.05
2012,11,30,10,12,986.02
2012,11,30,10,13,986.05
2012,11,30,10,14,986.08
2012,11,30,10,15,986.05
2012,11,30,10,16,986.08
2012,11,30,10,17,986.08
2012,11,30,10,18,986.05
2012,11,30,10,19,986.05
2012,11,30,10,20,986.15
2012,11,30,10,21,986.22
2012,11,30,10,22,986.22
2012,11,30,10,23,986.29
2012,11,30,10,24,986.22
2012,11,30,10,25,986.22
2012,11,30,10,26,986.15
2012,11,30,10,27,986.05
2012,11,30,10,28,986.08
2012,11,30,10,29,986.12
2012,11,30,10,30,986.08
2012,11,30,10,31,986.15
2012,11,30,10,32,986.15
2012,11,30,10,33,986.18
2012,11,30,10,34,986.29
2012,11,30,10,35,986.35
2012,11,30,10,36,986.32
2012,11,30,10,37,986.25
2012,11,30,10,38,986.29
2012,11,30,10,39,986.29
2012,11,30,10,40,986.22
2012,11,30,10,41,986.22
2012,11,30,10,42,986.18
2012,11,30,10,43,986.18
2012,11,30,10,44,986.18
2012,11,30,10,45,986.25
2012,11,30,10,46,986.25
2012,11,30,10,47,986.22
2012,11,30,10,48,986.29
2012,11,30,10,49,986.42
2012,11,30,10,50,986.46
2012,11,30,10,51,986.47
2012,11,30,10,52,986.56
2012,11,30,10,53,986.59
2012,11,30,10,54,986.59
2012,11,30,10,55,986.62
2012,11,30,10,56,986.56
2012,11,30,10,57,986.46
2012,11,30,10,58,986.46
2012,11,30,10,59,986.46
2012,11,30,11,00,986.39
2012,11,30,11,01,986.25
2012,11,30,11,02,986.18
2012,11,30,11,03,986.15
2012,11,30,11,04,986.22
2012,11,30,11,05,986.25
2012,11,30,11,06,986.25
2012,11,30,11,07,986.33
2012,11,30,11,08,986.46
2012,11,30,11,09,986.49
2012,11,30,11,10,986.39
2012,11,30,11,11,986.29
2012,11,30,11,12,986.29
2012,11,30,11,13,986.25
2012,11,30,11,14,986.29
2012,11,30,11,15,986.32
2012,11,30,11,16,986.42
2012,11,30,11,17,986.42
2012,11,30,11,18,986.52
2012,11,30,11,19,986.58
2012,11,30,11,20,986.39
2012,11,30,11,21,986.32
2012,11,30,11,22,986.25
2012,11,30,11,23,986.18
2012,11,30,11,24,986.29
2012,11,30,11,25,986.35
2012,11,30,11,26,986.18
2012,11,30,11,27,986.12
2012,11,30,11,28,986.12
2012,11,30,11,29,986.08
2012,11,30,11,30,986.08
2012,11,30,11,31,986.15
2012,11,30,11,32,986.08
2012,11,30,11,33,986.06
2012,11,30,11,34,986.25
2012,11,30,11,35,986.32
2012,11,30,11,36,986.29
2012,11,30,11,37,986.25
2012,11,30,11,38,986.29
2012,11,30,11,39,986.32
2012,11,30,11,40,986.25
2012,11,30,11,41,986.08
2012,11,30,11,42,986.18
2012,11,30,11,43,986.18
2012,11,30,11,44,986.25
2012,11,30,11,45,986.22
2012,11,30,11,46,986.18
2012,11,30,11,47,986.25
2012,11,30,11,48,986.15
2012,11,30,11,49,986.15
2012,11,30,11,50,986.02
2012,11,30,11,51,986.05
2012,11,30,11,52,986.02
2012,11,30,11,53,985.98
2012,11,30,11,54,985.95
2012,11,30,11,55,985.61
2012,11,30,11,56,985.74
2012,11,30,11,57,985.68
2012,11,30,11,58,985.68
2012,11,30,11,59,985.60
2012,11,30,12,00,985.47
2012,11,30,12,01,985.52
2012,11,30,12,02,985.64
2012,11,30,12,03,985.74
2012,11,30,12,04,985.79
2012,11,30,12,05,985.96
2012,11,30,12,06,986.08
2012,11,30,12,07,985.98
2012,11,30,12,08,985.72
2012,11,30,12,09,985.88
2012,11,30,12,10,986.06
2012,11,30,12,11,986.18
2012,11,30,12,12,986.22
2012,11,30,12,13,986.05
2012,11,30,12,14,986.15
2012,11,30,12,15,986.18
2012,11,30,12,16,986.08
2012,11,30,12,17,986.05
2012,11,30,12,18,986.08
2012,11,30,12,19,986.12
2012,11,30,12,20,986.12
2012,11,30,12,21,986.05
2012,11,30,12,22,986.05
2012,11,30,12,23,985.98
2012,11,30,12,24,986.12
2012,11,30,12,25,986.15
2012,11,30,12,26,986.15
2012,11,30,12,27,985.98
2012,11,30,12,28,986.02
2012,11,30,12,29,986.08
2012,11,30,12,30,986.15
2012,11,30,12,31,986.08
2012,11,30,12,32,986.15
2012,11,30,12,33,986.16
2012,11,30,12,34,986.28
2012,11,30,12,35,986.18
2012,11,30,12,36,986.25
2012,11,30,12,37,986.29
2012,11,30,12,38,986.49
2012,11,30,12,39,986.42
2012,11,30,12,40,986.35
2012,11,30,12,41,986.39
2012,11,30,12,42,986.59
2012,11,30,12,43,986.59
2012,11,30,12,44,986.73
2012,11,30,12,45,986.73
2012,11,30,12,46,986.69
2012,11,30,12,47,986.59
2012,11,30,12,48,986.66
2012,11,30,12,49,986.69
2012,11,30,12,50,986.73
2012,11,30,12,51,986.73
2012,11,30,12,52,986.76
2012,11,30,12,53,986.69
2012,11,30,12,54,986.90
2012,11,30,12,55,986.90
2012,11,30,12,56,986.83
2012,11,30,12,57,986.90
2012,11,30,12,58,986.90
2012,11,30,12,59,986.86
2012,11,30,13,00,986.83
2012,11,30,13,01,986.90
2012,11,30,13,02,986.90
2012,11,30,13,03,986.83
2012,11,30,13,04,986.82
2012,11,30,13,05,986.69
2012,11,30,13,06,986.69
2012,11,30,13,07,986.66
2012,11,30,13,08,986.70
2012,11,30,13,09,986.83
2012,11,30,13,10,986.84
2012,11,30,13,11,987.06
2012,11,30,13,12,986.93
2012,11,30,13,13,986.79
2012,11,30,13,14,986.90
2012,11,30,13,15,986.86
2012,11,30,13,16,986.86
2012,11,30,13,17,987.00
2012,11,30,13,18,987.03
2012,11,30,13,19,987.01
2012,11,30,13,20,987.20
2012,11,30,13,21,987.00
2012,11,30,13,22,987.10
2012,11,30,13,23,987.06
2012,11,30,13,24,987.10
2012,11,30,13,25,987.20
2012,11,30,13,26,987.30
2012,11,30,13,27,987.23
2012,11,30,13,28,987.23
2012,11,30,13,29,987.27
2012,11,30,13,30,987.20
2012,11,30,13,31,987.34
2012,11,30,13,32,987.40
2012,11,30,13,33,987.37
2012,11,30,13,34,987.30
2012,11,30,13,35,987.37
2012,11,30,13,36,987.37
2012,11,30,13,37,987.45
2012,11,30,13,38,987.53
2012,11,30,13,39,987.40
2012,11,30,13,40,987.40
2012,11,30,13,41,987.47
2012,11,30,13,42,987.57
2012,11,30,13,43,987.51
2012,11,30,13,44,987.57
2012,11,30,13,45,987.64
2012,11,30,13,46,987.61
2012,11,30,13,47,987.67
2012,11,30,13,48,987.61
2012,11,30,13,49,987.61
2012,11,30,13,50,987.61
2012,11,30,13,51,987.71
2012,11,30,13,52,987.71
2012,11,30,13,53,987.74
2012,11,30,13,54,987.78
2012,11,30,13,55,987.81
2012,11,30,13,56,987.84
2012,11,30,13,57,987.84
2012,11,30,13,58,987.84
2012,11,30,13,59,987.88
2012,11,30,14,00,987.84
2012,11,30,14,01,987.88
2012,11,30,14,02,987.91
2012,11,30,14,03,987.91
2012,11,30,14,04,987.95
2012,11,30,14,05,988.01
2012,11,30,14,06,987.89
2012,11,30,14,07,987.98
2012,11,30,14,08,987.95
2012,11,30,14,09,987.95
2012,11,30,14,10,987.95
2012,11,30,14,11,987.95
2012,11,30,14,12,987.91
2012,11,30,14,13,987.91
2012,11,30,14,14,987.81
2012,11,30,14,15,987.91
2012,11,30,14,16,987.88
2012,11,30,14,17,987.88
2012,11,30,14,18,987.84
2012,11,30,14,19,987.84
2012,11,30,14,20,987.84
2012,11,30,14,21,987.84
2012,11,30,14,22,987.88
2012,11,30,14,23,987.91
2012,11,30,14,24,987.91
2012,11,30,14,25,987.95
2012,11,30,14,26,987.95
2012,11,30,14,27,987.98
2012,11,30,14,28,987.95
2012,11,30,14,29,987.98
2012,11,30,14,30,987.98
2012,11,30,14,31,988.01
2012,11,30,14,32,988.01
2012,11,30,14,33,988.05
2012,11,30,14,34,988.08
2012,11,30,14,35,988.08
2012,11,30,14,36,988.08
2012,11,30,14,37,988.08
2012,11,30,14,38,988.11
2012,11,30,14,39,988.11
2012,11,30,14,40,988.11
2012,11,30,14,41,988.11
2012,11,30,14,42,988.15
2012,11,30,14,43,988.18
2012,11,30,14,44,988.18
2012,11,30,14,45,988.22
2012,11,30,14,46,988.22
2012,11,30,14,47,988.18
2012,11,30,14,48,988.28
2012,11,30,14,49,988.18
2012,11,30,14,50,988.22
2012,11,30,14,51,988.32
2012,11,30,14,52,988.32
2012,11,30,14,53,988.35
2012,11,30,14,54,988.35
2012,11,30,14,55,988.32
2012,11,30,14,56,988.32
2012,11,30,14,57,988.45
2012,11,30,14,58,988.35
2012,11,30,14,59,988.42
2012,11,30,15,00,988.45
2012,11,30,15,01,988.42
2012,11,30,15,02,988.42
2012,11,30,15,03,988.42
2012,11,30,15,04,988.45
2012,11,30,15,05,988.49
2012,11,30,15,06,988.49
2012,11,30,15,07,988.39
2012,11,30,15,08,988.42
2012,11,30,15,09,988.45
2012,11,30,15,10,988.45
2012,11,30,15,11,988.49
2012,11,30,15,12,988.55
2012,11,30,15,13,988.62
2012,11,30,15,14,988.55
2012,11,30,15,15,988.62
2012,11,30,15,16,988.66
2012,11,30,15,17,988.72
2012,11,30,15,18,988.76
2012,11,30,15,19,988.69
2012,11,30,15,20,988.76
2012,11,30,15,21,988.76
2012,11,30,15,22,988.83
2012,11,30,15,23,988.86
2012,11,30,15,24,988.86
2012,11,30,15,25,988.83
2012,11,30,15,26,988.83
2012,11,30,15,27,988.83
2012,11,30,15,28,988.83
2012,11,30,15,29,988.79
2012,11,30,15,30,988.87
2012,11,30,15,31,989.00
2012,11,30,15,32,988.96
2012,11,30,15,33,989.00
2012,11,30,15,34,989.06
2012,11,30,15,35,989.00
2012,11,30,15,36,989.00
2012,11,30,15,37,989.03
2012,11,30,15,38,989.00
2012,11,30,15,39,988.93
2012,11,30,15,40,988.96
2012,11,30,15,41,988.93
2012,11,30,15,42,988.96
2012,11,30,15,43,988.96
2012,11,30,15,44,989.00
2012,11,30,15,45,989.00
2012,11,30,15,46,988.96
2012,11,30,15,47,989.10
2012,11,30,15,48,989.10
2012,11,30,15,49,989.10
2012,11,30,15,50,989.10
2012,11,30,15,51,989.06
2012,11,30,15,52,989.06
2012,11,30,15,53,989.10
2012,11,30,15,54,989.16
2012,11,30,15,55,989.16
2012,11,30,15,56,989.23
2012,11,30,15,57,989.30
2012,11,30,15,58,989.27
2012,11,30,15,59,989.27
2012,11,30,16,00,989.30
2012,11,30,16,01,989.30
2012,11,30,16,02,989.30
2012,11,30,16,03,989.27
2012,11,30,16,04,989.30
2012,11,30,16,05,989.40
2012,11,30,16,06,989.44
2012,11,30,16,07,989.40
2012,11,30,16,08,989.40
2012,11,30,16,09,989.40
2012,11,30,16,10,989.40
2012,11,30,16,11,989.40
2012,11,30,16,12,989.33
2012,11,30,16,13,989.33
2012,11,30,16,14,989.40
2012,11,30,16,15,989.40
2012,11,30,16,16,989.40
2012,11,30,16,17,989.40
2012,11,30,16,18,989.47
2012,11,30,16,19,989.44
2012,11,30,16,20,989.44
2012,11,30,16,21,989.50
2012,11,30,16,22,989.47
2012,11,30,16,23,989.57
2012,11,30,16,24,989.54
2012,11,30,16,25,989.57
2012,11,30,16,26,989.60
2012,11,30,16,27,989.60
2012,11,30,16,28,989.57
2012,11,30,16,29,989.60
2012,11,30,16,30,989.57
2012,11,30,16,31,989.60
2012,11,30,16,32,989.64
2012,11,30,16,33,989.67
2012,11,30,16,34,989.64
2012,11,30,16,35,989.64
2012,11,30,16,36,989.60